Home > Weather > Gitarama > Past weeks

Flag for Rwanda Weather for the Past 2 Weeks in Gitarama, Rwanda

Now
79 °F

Passing clouds.


Feels Like: 80 °F
Forecast: 64 / 81 °F
Wind: 7 mph from South

Location: Kigali Airport

Current Time: Feb 7, 2016 at 11:10:27 AM

Latest Report: Feb 7, 2016 at 10:30 AM


Visibility: N/A

Pressure: 30.21 "Hg (24.39 "Hg at 1872m altitude)

Humidity: 58%

Dew point: 63 °F

Location of GitaramaLocation

Historic Weather in Gitarama — Graph

°F

Gitarama Temperature Yesterday

Maximum temperature yesterday: 88 °F (at 2:30 PM)
Minimum temperature yesterday: 63 °F (at 7:00 AM)
Average temperature yesterday: 76 °F

High & Low Weather Summary for the Past Weeks

 TemperatureHumidityPressure
High90 °F (Feb 4, 3:30 PM)100% (Jan 23, 9:00 PM)30.24 "Hg (Jan 23, 9:00 PM)
Low45 °F (Feb 2, 7:30 AM)29% (Feb 5, 1:00 PM)29.98 "Hg (Feb 5, 4:00 PM)
Average72 °F76%30.13 "Hg
* Reported Jan 23 10:00 AM — Feb 7 10:00 AM, Gitarama, Weather by CustomWeather, © 2016

Note: Actual official high and low records may vary slightly from our data, if they occured in-between our weather recording intervals... More about our weather records

Advertising

Gitarama Weather History for the Previous 24 Hours

 ConditionsComfort  
Time TempWeatherWind HumidityBarometerVisibility
10:00 AM
Sun, Feb 7
75 °FPassing clouds.3 mph69%30.21 "HgN/A
9:30 AM75 °FPassing clouds.3 mph69%30.21 "HgN/A
9:00 AM73 °FScattered clouds.3 mph69%30.21 "HgN/A
8:30 AM72 °FSunny.3 mph73%30.21 "Hg10 mi
8:00 AM70 °FClear.2 mph78%30.21 "Hg5 mi
7:30 AM68 °FPassing clouds.3 mph83%30.18 "HgN/A
7:00 AM66 °FPassing clouds.5 mph88%30.18 "HgN/A
6:30 AM64 °FPassing clouds.5 mph94%30.15 "HgN/A
6:00 AM64 °FPassing clouds.5 mph94%30.15 "HgN/A
5:30 AM64 °FPassing clouds.No wind88%30.15 "HgN/A
5:00 AM66 °FPassing clouds.No wind83%30.15 "HgN/A
4:30 AM66 °FPassing clouds.No wind83%30.15 "HgN/A
4:00 AM68 °FPassing clouds.No wind78%30.12 "HgN/A
3:30 AM68 °FPassing clouds.No wind78%30.12 "HgN/A
3:00 AM68 °FPassing clouds.No wind83%30.12 "HgN/A
2:30 AM68 °FPassing clouds.No wind83%30.12 "HgN/A
2:00 AM68 °FPassing clouds.No wind78%30.12 "HgN/A
1:00 AM70 °FPassing clouds.No wind78%30.15 "HgN/A
12:30 AM70 °FPassing clouds.3 mph78%30.15 "HgN/A
12:00 AM70 °FPassing clouds.5 mph78%30.15 "HgN/A
11:00 PM
Sat, Feb 6
72 °FPassing clouds.6 mph73%30.15 "HgN/A
10:30 PM73 °FPartly cloudy.7 mph69%30.15 "HgN/A
10:00 PM73 °FPartly cloudy.5 mph69%30.15 "HgN/A
9:30 PM75 °FPartly cloudy.3 mph65%30.12 "HgN/A
9:00 PM75 °FPassing clouds.3 mph65%30.12 "HgN/A
8:30 PM77 °FPassing clouds.3 mph54%30.07 "HgN/A
8:00 PM79 °FPassing clouds.3 mph42%30.07 "HgN/A
7:30 PM79 °FPassing clouds.6 mph42%30.04 "HgN/A
7:00 PM81 °FPassing clouds.8 mph37%30.04 "HgN/A
6:30 PM82 °FPassing clouds.10 mph32%30.01 "HgN/A
6:00 PM84 °FPassing clouds.12 mph31%30.01 "HgN/A
5:30 PM84 °FPassing clouds.14 mph31%29.98 "HgN/A
5:00 PM86 °FPassing clouds.13 mph29%29.98 "HgN/A
4:30 PM86 °FPassing clouds.13 mph29%29.98 "HgN/A
4:00 PM86 °FScattered clouds.10 mph31%29.98 "HgN/A
3:30 PM84 °FScattered clouds.12 mph33%29.98 "HgN/A
3:00 PM86 °FScattered clouds.13 mph29%30.01 "HgN/A
2:30 PM88 °FScattered clouds.15 mph29%30.01 "HgN/A
2:00 PM86 °FScattered clouds.15 mph33%30.04 "HgN/A
1:30 PM86 °FPassing clouds.13 mph33%30.04 "HgN/A
12:30 PM86 °FPassing clouds.15 mph31%30.09 "HgN/A
12:00 PM86 °FPassing clouds.13 mph29%30.12 "HgN/A
11:30 AM84 °FPassing clouds.8 mph48%30.15 "HgN/A
11:00 AM81 °FPassing clouds.5 mph51%30.15 "HgN/A
Weather by CustomWeather, © 2016

See weather overviewHow to use our weather pages